Location: Katowice
(50.2611°N, 19.0242°E)
Time: 02:20:55
(UTC+02:00)

Explorer 7 - Pass Details

Date: 30 August 2019
Orbit: 485 x 680 km, 50.3° (Epoch: 19 September)

Event Time Altitude Azimuth Distance (km) Brightness Sun altitude
Rises 12:08:19 0° 284° (WNW) 2,986 10.4 48.1°
Reaches altitude 10° 12:10:45 10° 281° (W) 2,049 9.7 48.2°
Maximum altitude 12:15:22 56° 204° (SSW) 742 9.1 48.3°
Drops below altitude 10° 12:19:42 10° 126° (SE) 1,928 10.2 48.4°
Sets 12:21:56 0° 122° (ESE) 2,792 10.8 48.5°
